Year,Month,Day,Hour,Minute,Value (Times are PST for temperature in C)
2009,07,18,00,00,18.10
2009,07,18,00,01,18.10
2009,07,18,00,02,18.00
2009,07,18,00,03,17.90
2009,07,18,00,04,17.90
2009,07,18,00,05,17.90
2009,07,18,00,06,17.90
2009,07,18,00,07,17.90
2009,07,18,00,08,17.80
2009,07,18,00,09,17.80
2009,07,18,00,10,17.80
2009,07,18,00,11,17.70
2009,07,18,00,12,17.70
2009,07,18,00,13,17.70
2009,07,18,00,14,17.60
2009,07,18,00,15,17.60
2009,07,18,00,16,17.60
2009,07,18,00,17,17.60
2009,07,18,00,18,17.60
2009,07,18,00,19,17.50
2009,07,18,00,20,17.50
2009,07,18,00,21,17.50
2009,07,18,00,22,17.50
2009,07,18,00,23,17.40
2009,07,18,00,24,17.40
2009,07,18,00,25,17.40
2009,07,18,00,26,17.40
2009,07,18,00,27,17.30
2009,07,18,00,28,17.30
2009,07,18,00,29,17.30
2009,07,18,00,30,17.30
2009,07,18,00,31,17.30
2009,07,18,00,32,17.30
2009,07,18,00,33,17.20
2009,07,18,00,34,17.20
2009,07,18,00,35,17.20
2009,07,18,00,36,17.20
2009,07,18,00,37,17.20
2009,07,18,00,38,17.20
2009,07,18,00,39,17.20
2009,07,18,00,40,17.20
2009,07,18,00,41,17.20
2009,07,18,00,42,17.20
2009,07,18,00,43,17.20
2009,07,18,00,44,17.20
2009,07,18,00,45,17.20
2009,07,18,00,46,17.20
2009,07,18,00,47,17.20
2009,07,18,00,48,17.20
2009,07,18,00,49,17.20
2009,07,18,00,50,17.20
2009,07,18,00,51,17.20
2009,07,18,00,52,17.20
2009,07,18,00,53,17.20
2009,07,18,00,54,17.20
2009,07,18,00,55,17.20
2009,07,18,00,56,17.20
2009,07,18,00,57,17.20
2009,07,18,00,58,17.20
2009,07,18,00,59,17.30
2009,07,18,01,00,17.30
2009,07,18,01,01,17.30
2009,07,18,01,02,17.30
2009,07,18,01,03,17.20
2009,07,18,01,04,17.20
2009,07,18,01,05,17.20
2009,07,18,01,06,17.20
2009,07,18,01,07,17.20
2009,07,18,01,08,17.20
2009,07,18,01,09,17.20
2009,07,18,01,10,17.20
2009,07,18,01,11,17.20
2009,07,18,01,12,17.20
2009,07,18,01,13,17.20
2009,07,18,01,14,17.10
2009,07,18,01,15,17.10
2009,07,18,01,16,17.10
2009,07,18,01,17,17.10
2009,07,18,01,18,17.10
2009,07,18,01,19,17.10
2009,07,18,01,20,17.10
2009,07,18,01,21,17.20
2009,07,18,01,22,17.10
2009,07,18,01,23,17.10
2009,07,18,01,24,17.10
2009,07,18,01,25,17.10
2009,07,18,01,26,17.10
2009,07,18,01,27,17.10
2009,07,18,01,28,17.00
2009,07,18,01,29,17.00
2009,07,18,01,30,17.00
2009,07,18,01,31,16.90
2009,07,18,01,32,16.90
2009,07,18,01,33,16.90
2009,07,18,01,34,16.90
2009,07,18,01,35,16.80
2009,07,18,01,36,16.80
2009,07,18,01,37,16.80
2009,07,18,01,38,16.80
2009,07,18,01,39,16.80
2009,07,18,01,40,16.80
2009,07,18,01,41,16.80
2009,07,18,01,42,16.80
2009,07,18,01,43,16.80
2009,07,18,01,44,16.80
2009,07,18,01,45,16.70
2009,07,18,01,46,16.70
2009,07,18,01,47,16.70
2009,07,18,01,48,16.70
2009,07,18,01,49,16.70
2009,07,18,01,50,16.80
2009,07,18,01,51,16.90
2009,07,18,01,52,17.00
2009,07,18,01,53,17.10
2009,07,18,01,54,17.10
2009,07,18,01,55,17.20
2009,07,18,01,56,17.20
2009,07,18,01,57,17.20
2009,07,18,01,58,17.20
2009,07,18,01,59,17.20
2009,07,18,02,00,17.30
2009,07,18,02,01,17.30
2009,07,18,02,02,17.30
2009,07,18,02,03,17.30
2009,07,18,02,04,17.40
2009,07,18,02,05,17.50
2009,07,18,02,06,17.50
2009,07,18,02,07,17.60
2009,07,18,02,08,17.60
2009,07,18,02,09,17.70
2009,07,18,02,10,17.70
2009,07,18,02,11,17.70
2009,07,18,02,12,17.60
2009,07,18,02,13,17.50
2009,07,18,02,14,17.40
2009,07,18,02,15,17.40
2009,07,18,02,16,17.30
2009,07,18,02,17,17.20
2009,07,18,02,18,17.20
2009,07,18,02,19,17.00
2009,07,18,02,20,17.00
2009,07,18,02,21,16.90
2009,07,18,02,22,16.70
2009,07,18,02,23,16.60
2009,07,18,02,24,16.60
2009,07,18,02,25,16.50
2009,07,18,02,26,16.40
2009,07,18,02,27,16.40
2009,07,18,02,28,16.30
2009,07,18,02,29,16.30
2009,07,18,02,30,16.20
2009,07,18,02,31,16.10
2009,07,18,02,32,16.10
2009,07,18,02,33,15.90
2009,07,18,02,34,15.80
2009,07,18,02,35,15.80
2009,07,18,02,36,15.80
2009,07,18,02,37,15.70
2009,07,18,02,38,15.60
2009,07,18,02,39,15.60
2009,07,18,02,40,15.60
2009,07,18,02,41,15.50
2009,07,18,02,42,15.50
2009,07,18,02,43,15.40
2009,07,18,02,44,15.40
2009,07,18,02,45,15.30
2009,07,18,02,46,15.30
2009,07,18,02,47,15.30
2009,07,18,02,48,15.30
2009,07,18,02,49,15.30
2009,07,18,02,50,15.30
2009,07,18,02,51,15.30
2009,07,18,02,52,15.20
2009,07,18,02,53,15.20
2009,07,18,02,54,15.20
2009,07,18,02,55,15.20
2009,07,18,02,56,15.20
2009,07,18,02,57,15.10
2009,07,18,02,58,15.10
2009,07,18,02,59,15.10
2009,07,18,03,00,15.10
2009,07,18,03,01,15.10
2009,07,18,03,02,15.10
2009,07,18,03,03,15.10
2009,07,18,03,04,15.00
2009,07,18,03,05,15.00
2009,07,18,03,06,15.00
2009,07,18,03,07,15.00
2009,07,18,03,08,15.00
2009,07,18,03,09,15.00
2009,07,18,03,10,15.00
2009,07,18,03,11,14.90
2009,07,18,03,12,14.90
2009,07,18,03,13,14.90
2009,07,18,03,14,14.80
2009,07,18,03,15,14.80
2009,07,18,03,16,14.80
2009,07,18,03,17,14.80
2009,07,18,03,18,14.80
2009,07,18,03,19,14.70
2009,07,18,03,20,14.70
2009,07,18,03,21,14.70
2009,07,18,03,22,14.70
2009,07,18,03,23,14.60
2009,07,18,03,24,14.60
2009,07,18,03,25,14.60
2009,07,18,03,26,14.60
2009,07,18,03,27,14.50
2009,07,18,03,28,14.50
2009,07,18,03,29,14.50
2009,07,18,03,30,14.50
2009,07,18,03,31,14.50
2009,07,18,03,32,14.50
2009,07,18,03,33,14.40
2009,07,18,03,34,14.40
2009,07,18,03,35,14.30
2009,07,18,03,36,14.40
2009,07,18,03,37,14.40
2009,07,18,03,38,14.50
2009,07,18,03,39,14.60
2009,07,18,03,40,14.60
2009,07,18,03,41,14.60
2009,07,18,03,42,14.70
2009,07,18,03,43,14.70
2009,07,18,03,44,14.70
2009,07,18,03,45,14.80
2009,07,18,03,46,14.80
2009,07,18,03,47,14.80
2009,07,18,03,48,14.80
2009,07,18,03,49,14.80
2009,07,18,03,50,14.80
2009,07,18,03,51,14.80
2009,07,18,03,52,14.90
2009,07,18,03,53,14.90
2009,07,18,03,54,14.90
2009,07,18,03,55,14.90
2009,07,18,03,56,14.90
2009,07,18,03,57,15.00
2009,07,18,03,58,15.00
2009,07,18,03,59,15.00
2009,07,18,04,00,15.00
2009,07,18,04,01,15.00
2009,07,18,04,02,15.00
2009,07,18,04,03,15.00
2009,07,18,04,07,15.00
2009,07,18,04,08,15.00
2009,07,18,04,09,14.90
2009,07,18,04,10,14.90
2009,07,18,04,11,14.90
2009,07,18,04,12,14.90
2009,07,18,04,13,14.90
2009,07,18,04,14,14.80
2009,07,18,04,15,14.80
2009,07,18,04,16,14.80
2009,07,18,04,17,14.80
2009,07,18,04,18,14.80
2009,07,18,04,19,14.80
2009,07,18,04,20,14.80
2009,07,18,04,21,14.80
2009,07,18,04,22,14.70
2009,07,18,04,23,14.70
2009,07,18,04,24,14.70
2009,07,18,04,25,14.70
2009,07,18,04,26,14.60
2009,07,18,04,27,14.60
2009,07,18,04,28,14.60
2009,07,18,04,29,14.60
2009,07,18,04,30,14.60
2009,07,18,04,31,14.60
2009,07,18,04,32,14.60
2009,07,18,04,33,14.60
2009,07,18,04,34,14.60
2009,07,18,04,35,14.60
2009,07,18,04,36,14.60
2009,07,18,04,37,14.60
2009,07,18,04,38,14.60
2009,07,18,04,39,14.60
2009,07,18,04,40,14.60
2009,07,18,04,41,14.60
2009,07,18,04,42,14.60
2009,07,18,04,43,14.60
2009,07,18,04,44,14.60
2009,07,18,04,45,14.60
2009,07,18,04,46,14.60
2009,07,18,04,47,14.60
2009,07,18,04,48,14.60
2009,07,18,04,49,14.60
2009,07,18,04,50,14.60
2009,07,18,04,51,14.60
2009,07,18,04,52,14.60
2009,07,18,04,53,14.60
2009,07,18,04,54,14.60
2009,07,18,04,55,14.60
2009,07,18,04,56,14.60
2009,07,18,04,57,14.60
2009,07,18,04,58,14.60
2009,07,18,04,59,14.60
2009,07,18,05,00,14.60
2009,07,18,05,01,14.60
2009,07,18,05,02,14.60
2009,07,18,05,03,14.60
2009,07,18,05,04,14.50
2009,07,18,05,05,14.50
2009,07,18,05,06,14.50
2009,07,18,05,07,14.50
2009,07,18,05,08,14.40
2009,07,18,05,09,14.40
2009,07,18,05,10,14.40
2009,07,18,05,11,14.40
2009,07,18,05,12,14.30
2009,07,18,05,13,14.30
2009,07,18,05,14,14.30
2009,07,18,05,15,14.20
2009,07,18,05,16,14.20
2009,07,18,05,17,14.20
2009,07,18,05,18,14.20
2009,07,18,05,19,14.20
2009,07,18,05,20,14.20
2009,07,18,05,21,14.20
2009,07,18,05,22,14.20
2009,07,18,05,23,14.20
2009,07,18,05,24,14.20
2009,07,18,05,25,14.20
2009,07,18,05,26,14.20
2009,07,18,05,27,14.20
2009,07,18,05,28,14.20
2009,07,18,05,29,14.20
2009,07,18,05,30,14.20
2009,07,18,05,31,14.20
2009,07,18,05,32,14.20
2009,07,18,05,33,14.20
2009,07,18,05,34,14.20
2009,07,18,05,35,14.20
2009,07,18,05,36,14.20
2009,07,18,05,37,14.20
2009,07,18,05,38,14.20
2009,07,18,05,39,14.20
2009,07,18,05,40,14.20
2009,07,18,05,41,14.20
2009,07,18,05,42,14.20
2009,07,18,05,43,14.20
2009,07,18,05,44,14.20
2009,07,18,05,45,14.20
2009,07,18,05,46,14.20
2009,07,18,05,47,14.10
2009,07,18,05,48,14.10
2009,07,18,05,49,14.10
2009,07,18,05,50,14.10
2009,07,18,05,51,14.10
2009,07,18,05,52,14.10
2009,07,18,05,53,14.00
2009,07,18,05,54,14.00
2009,07,18,05,55,14.00
2009,07,18,05,56,14.00
2009,07,18,05,57,14.00
2009,07,18,05,58,14.00
2009,07,18,05,59,14.00
2009,07,18,06,00,14.00
2009,07,18,06,01,14.00
2009,07,18,06,02,14.00
2009,07,18,06,03,14.00
2009,07,18,06,04,14.00
2009,07,18,06,05,14.00
2009,07,18,06,06,14.00
2009,07,18,06,07,14.00
2009,07,18,06,08,13.90
2009,07,18,06,09,13.90
2009,07,18,06,10,13.90
2009,07,18,06,11,13.90
2009,07,18,06,12,13.90
2009,07,18,06,13,13.90
2009,07,18,06,14,13.90
2009,07,18,06,15,13.90
2009,07,18,06,16,13.90
2009,07,18,06,17,13.80
2009,07,18,06,18,13.80
2009,07,18,06,19,13.90
2009,07,18,06,20,13.90
2009,07,18,06,21,13.90
2009,07,18,06,22,13.90
2009,07,18,06,23,13.90
2009,07,18,06,24,13.90
2009,07,18,06,25,13.90
2009,07,18,06,26,13.90
2009,07,18,06,27,14.00
2009,07,18,06,28,14.00
2009,07,18,06,29,14.00
2009,07,18,06,30,14.00
2009,07,18,06,31,14.00
2009,07,18,06,32,14.00
2009,07,18,06,33,14.10
2009,07,18,06,34,14.10
2009,07,18,06,35,14.10
2009,07,18,06,36,14.10
2009,07,18,06,37,14.10
2009,07,18,06,38,14.10
2009,07,18,06,39,14.10
2009,07,18,06,40,14.10
2009,07,18,06,41,14.10
2009,07,18,06,42,14.10
2009,07,18,06,43,14.10
2009,07,18,06,44,14.10
2009,07,18,06,45,14.10
2009,07,18,06,46,14.10
2009,07,18,06,47,14.10
2009,07,18,06,48,14.20
2009,07,18,06,49,14.20
2009,07,18,06,50,14.20
2009,07,18,06,51,14.20
2009,07,18,06,52,14.20
2009,07,18,06,53,14.20
2009,07,18,06,54,14.20
2009,07,18,06,55,14.20
2009,07,18,06,56,14.20
2009,07,18,06,57,14.30
2009,07,18,06,58,14.30
2009,07,18,06,59,14.30
2009,07,18,07,00,14.40
2009,07,18,07,01,14.40
2009,07,18,07,02,14.50
2009,07,18,07,03,14.50
2009,07,18,07,04,14.50
2009,07,18,07,05,14.50
2009,07,18,07,06,14.60
2009,07,18,07,07,14.60
2009,07,18,07,08,14.60
2009,07,18,07,09,14.60
2009,07,18,07,10,14.70
2009,07,18,07,11,14.70
2009,07,18,07,12,14.70
2009,07,18,07,13,14.70
2009,07,18,07,14,14.70
2009,07,18,07,15,14.80
2009,07,18,07,16,14.80
2009,07,18,07,17,14.80
2009,07,18,07,18,14.80
2009,07,18,07,19,14.80
2009,07,18,07,20,14.90
2009,07,18,07,21,14.90
2009,07,18,07,22,14.90
2009,07,18,07,23,14.90
2009,07,18,07,24,14.90
2009,07,18,07,25,15.00
2009,07,18,07,26,15.00
2009,07,18,07,27,15.00
2009,07,18,07,28,15.00
2009,07,18,07,29,15.00
2009,07,18,07,30,15.00
2009,07,18,07,31,15.00
2009,07,18,07,32,15.00
2009,07,18,07,33,15.00
2009,07,18,07,34,15.00
2009,07,18,07,35,15.10
2009,07,18,07,36,15.10
2009,07,18,07,37,15.10
2009,07,18,07,38,15.20
2009,07,18,07,39,15.20
2009,07,18,07,40,15.30
2009,07,18,07,41,15.30
2009,07,18,07,42,15.30
2009,07,18,07,43,15.30
2009,07,18,07,44,15.30
2009,07,18,07,45,15.30
2009,07,18,07,46,15.30
2009,07,18,07,47,15.30
2009,07,18,07,48,15.40
2009,07,18,07,49,15.40
2009,07,18,07,50,15.50
2009,07,18,07,51,15.50
2009,07,18,07,52,15.60
2009,07,18,07,53,15.60
2009,07,18,07,54,15.70
2009,07,18,07,55,15.70
2009,07,18,07,56,15.80
2009,07,18,07,57,15.80
2009,07,18,07,58,15.80
2009,07,18,07,59,15.80
2009,07,18,08,00,15.80
2009,07,18,08,01,15.80
2009,07,18,08,02,15.90
2009,07,18,08,03,15.90
2009,07,18,08,04,16.10
2009,07,18,08,05,16.10
2009,07,18,08,06,16.10
2009,07,18,08,07,16.20
2009,07,18,08,08,16.20
2009,07,18,08,09,16.20
2009,07,18,08,10,16.20
2009,07,18,08,11,16.20
2009,07,18,08,12,16.20
2009,07,18,08,13,16.20
2009,07,18,08,14,16.20
2009,07,18,08,15,16.20
2009,07,18,08,16,16.10
2009,07,18,08,17,16.10
2009,07,18,08,18,16.10
2009,07,18,08,19,16.10
2009,07,18,08,20,16.10
2009,07,18,08,21,16.20
2009,07,18,08,22,16.20
2009,07,18,08,23,16.30
2009,07,18,08,24,16.40
2009,07,18,08,25,16.40
2009,07,18,08,26,16.40
2009,07,18,08,27,16.50
2009,07,18,08,28,16.60
2009,07,18,08,29,16.60
2009,07,18,08,30,16.60
2009,07,18,08,31,16.60
2009,07,18,08,32,16.60
2009,07,18,08,33,16.70
2009,07,18,08,34,16.70
2009,07,18,08,35,16.70
2009,07,18,08,36,16.70
2009,07,18,08,37,16.70
2009,07,18,08,38,16.70
2009,07,18,08,39,16.80
2009,07,18,08,40,16.80
2009,07,18,08,41,16.80
2009,07,18,08,42,16.90
2009,07,18,08,43,16.90
2009,07,18,08,44,17.00
2009,07,18,08,45,17.00
2009,07,18,08,46,17.00
2009,07,18,08,47,17.10
2009,07,18,08,48,17.20
2009,07,18,08,49,17.20
2009,07,18,08,50,17.20
2009,07,18,08,51,17.30
2009,07,18,08,52,17.30
2009,07,18,08,53,17.30
2009,07,18,08,54,17.40
2009,07,18,08,55,17.50
2009,07,18,08,56,17.50
2009,07,18,08,57,17.60
2009,07,18,08,58,17.60
2009,07,18,08,59,17.60
2009,07,18,09,00,17.50
2009,07,18,09,01,17.50
2009,07,18,09,02,17.50
2009,07,18,09,03,17.50
2009,07,18,09,04,17.50
2009,07,18,09,05,17.50
2009,07,18,09,06,17.60
2009,07,18,09,07,17.50
2009,07,18,09,08,17.50
2009,07,18,09,09,17.60
2009,07,18,09,10,17.60
2009,07,18,09,11,17.60
2009,07,18,09,12,17.60
2009,07,18,09,13,17.60
2009,07,18,09,14,17.50
2009,07,18,09,15,17.50
2009,07,18,09,16,17.60
2009,07,18,09,17,17.60
2009,07,18,09,18,17.50
2009,07,18,09,19,17.50
2009,07,18,09,20,17.50
2009,07,18,09,21,17.50
2009,07,18,09,22,17.50
2009,07,18,09,23,17.60
2009,07,18,09,24,17.70
2009,07,18,09,25,17.70
2009,07,18,09,26,17.80
2009,07,18,09,27,17.80
2009,07,18,09,28,17.80
2009,07,18,09,29,17.80
2009,07,18,09,30,17.80
2009,07,18,09,31,17.80
2009,07,18,09,32,17.80
2009,07,18,09,33,17.70
2009,07,18,09,34,17.70
2009,07,18,09,35,17.70
2009,07,18,09,36,17.70
2009,07,18,09,37,17.80
2009,07,18,09,38,17.90
2009,07,18,09,39,18.00
2009,07,18,09,40,18.10
2009,07,18,09,41,18.20
2009,07,18,09,42,18.20
2009,07,18,09,43,18.30
2009,07,18,09,44,18.30
2009,07,18,09,45,18.40
2009,07,18,09,46,18.50
2009,07,18,09,47,18.50
2009,07,18,09,48,18.50
2009,07,18,09,49,18.50
2009,07,18,09,50,18.60
2009,07,18,09,51,18.70
2009,07,18,09,52,18.70
2009,07,18,09,53,18.80
2009,07,18,09,54,18.90
2009,07,18,09,55,19.00
2009,07,18,09,56,19.10
2009,07,18,09,57,19.10
2009,07,18,09,58,19.10
2009,07,18,09,59,19.10
2009,07,18,10,00,19.10
2009,07,18,10,01,19.20
2009,07,18,10,02,19.20
2009,07,18,10,03,19.20
2009,07,18,10,04,19.20
2009,07,18,10,05,19.20
2009,07,18,10,06,19.20
2009,07,18,10,07,19.20
2009,07,18,10,08,19.20
2009,07,18,10,09,19.20
2009,07,18,10,10,19.20
2009,07,18,10,11,19.20
2009,07,18,10,12,19.20
2009,07,18,20,06,17.30
2009,07,18,20,07,17.30
2009,07,18,20,08,17.20
2009,07,18,20,09,17.10
2009,07,18,20,10,17.10
2009,07,18,20,11,17.00
2009,07,18,20,12,17.00
2009,07,18,20,13,17.00
2009,07,18,20,14,16.90
2009,07,18,20,15,16.90
2009,07,18,20,16,16.90
2009,07,18,20,17,16.80
2009,07,18,20,18,16.80
2009,07,18,20,19,16.80
2009,07,18,20,20,16.70
2009,07,18,20,21,16.70
2009,07,18,20,22,16.70
2009,07,18,20,23,16.70
2009,07,18,20,24,16.70
2009,07,18,20,25,16.60
2009,07,18,20,26,16.60
2009,07,18,20,27,16.60
2009,07,18,20,28,16.60
2009,07,18,20,29,16.50
2009,07,18,20,30,16.40
2009,07,18,20,31,16.40
2009,07,18,20,32,16.40
2009,07,18,20,33,16.40
2009,07,18,20,34,16.40
2009,07,18,20,35,16.40
2009,07,18,20,36,16.30
2009,07,18,20,37,16.30
2009,07,18,20,38,16.20
2009,07,18,20,39,16.10
2009,07,18,20,40,16.10
2009,07,18,20,41,16.10
2009,07,18,20,42,16.10
2009,07,18,20,43,16.00
2009,07,18,20,44,15.90
2009,07,18,20,45,15.80
2009,07,18,20,46,15.80
2009,07,18,20,47,15.80
2009,07,18,20,48,15.80
2009,07,18,20,49,15.70
2009,07,18,20,50,15.70
2009,07,18,20,51,15.60
2009,07,18,20,52,15.60
2009,07,18,20,53,15.50
2009,07,18,20,54,15.50
2009,07,18,20,55,15.40
2009,07,18,20,56,15.40
2009,07,18,20,57,15.30
2009,07,18,20,58,15.30
2009,07,18,20,59,15.30
2009,07,18,21,00,15.20
2009,07,18,21,01,15.20
2009,07,18,21,02,15.20
2009,07,18,21,03,15.10
2009,07,18,21,04,15.10
2009,07,18,21,05,15.10
2009,07,18,21,06,15.00
2009,07,18,21,07,15.00
2009,07,18,21,08,15.00
2009,07,18,21,09,15.00
2009,07,18,21,10,15.00
2009,07,18,21,11,15.00
2009,07,18,21,12,15.00
2009,07,18,21,13,15.00
2009,07,18,21,14,15.00
2009,07,18,21,15,15.00
2009,07,18,21,16,15.00
2009,07,18,21,17,15.00
2009,07,18,21,18,15.00
2009,07,18,21,19,15.00
2009,07,18,21,20,14.90
2009,07,18,21,21,14.90
2009,07,18,21,22,14.90
2009,07,18,21,23,14.90
2009,07,18,21,24,14.90
2009,07,18,21,25,14.90
2009,07,18,21,26,14.80
2009,07,18,21,27,14.80
2009,07,18,21,28,14.80
2009,07,18,21,29,14.80
2009,07,18,21,30,14.80
2009,07,18,21,31,14.80
2009,07,18,21,32,14.80
2009,07,18,21,33,14.80
2009,07,18,21,34,14.80
2009,07,18,21,35,14.70
2009,07,18,21,36,14.70
2009,07,18,21,37,14.60
2009,07,18,21,38,14.60
2009,07,18,21,39,14.60
2009,07,18,21,40,14.50
2009,07,18,21,41,14.50
2009,07,18,21,42,14.40
2009,07,18,21,43,14.40
2009,07,18,21,44,14.40
2009,07,18,21,45,14.30
2009,07,18,21,46,14.30
2009,07,18,21,47,14.30
2009,07,18,21,48,14.20
2009,07,18,21,49,14.20
2009,07,18,21,50,14.20
2009,07,18,21,51,14.20
2009,07,18,21,52,14.20
2009,07,18,21,53,14.20
2009,07,18,21,54,14.20
2009,07,18,21,55,14.10
2009,07,18,21,56,14.10
2009,07,18,21,57,14.10
2009,07,18,21,58,14.10
2009,07,18,21,59,14.10
2009,07,18,22,00,14.00
2009,07,18,22,01,14.00
2009,07,18,22,02,14.00
2009,07,18,22,03,14.00
2009,07,18,22,04,14.00
2009,07,18,22,05,14.00
2009,07,18,22,06,14.00
2009,07,18,22,07,13.90
2009,07,18,22,08,13.90
2009,07,18,22,09,13.90
2009,07,18,22,10,13.90
2009,07,18,22,11,13.90
2009,07,18,22,12,13.90
2009,07,18,22,13,13.90
2009,07,18,22,14,13.90
2009,07,18,22,15,13.90
2009,07,18,22,16,13.90
2009,07,18,22,17,13.80
2009,07,18,22,18,13.80
2009,07,18,22,19,13.80
2009,07,18,22,20,13.80
2009,07,18,22,21,13.80
2009,07,18,22,22,13.80
2009,07,18,22,23,13.80
2009,07,18,22,24,13.80
2009,07,18,22,25,13.80
2009,07,18,22,26,13.80
2009,07,18,22,27,13.80
2009,07,18,22,28,13.80
2009,07,18,22,29,13.80
2009,07,18,22,30,13.80
2009,07,18,22,31,13.80
2009,07,18,22,32,13.80
2009,07,18,22,33,13.80
2009,07,18,22,34,13.80
2009,07,18,22,35,13.80
2009,07,18,22,36,13.80
2009,07,18,22,37,13.80
2009,07,18,22,38,13.80
2009,07,18,22,39,13.80
2009,07,18,22,40,13.80
2009,07,18,22,41,13.80
2009,07,18,22,42,13.80
2009,07,18,22,43,13.80
2009,07,18,22,44,13.90
2009,07,18,22,45,13.90
2009,07,18,22,46,14.00
2009,07,18,22,47,14.00
2009,07,18,22,48,14.00
2009,07,18,22,49,14.10
2009,07,18,22,50,14.10
2009,07,18,22,51,14.10
2009,07,18,22,52,14.20
2009,07,18,22,53,14.20
2009,07,18,22,54,14.20
2009,07,18,22,55,14.20
2009,07,18,22,56,14.10
2009,07,18,22,57,14.10
2009,07,18,22,58,14.10
2009,07,18,22,59,14.10
2009,07,18,23,00,14.10
2009,07,18,23,01,14.10
2009,07,18,23,02,14.00
2009,07,18,23,03,14.00
2009,07,18,23,04,14.00
2009,07,18,23,05,14.00
2009,07,18,23,06,14.00
2009,07,18,23,07,14.00
2009,07,18,23,08,14.00
2009,07,18,23,09,13.90
2009,07,18,23,10,13.90
2009,07,18,23,11,13.90
2009,07,18,23,12,13.90
2009,07,18,23,13,13.90
2009,07,18,23,14,13.90
2009,07,18,23,15,13.90
2009,07,18,23,16,13.90
2009,07,18,23,17,13.90
2009,07,18,23,18,13.90
2009,07,18,23,19,13.90
2009,07,18,23,20,13.90
2009,07,18,23,21,13.90
2009,07,18,23,22,13.80
2009,07,18,23,23,13.80
2009,07,18,23,24,13.80
2009,07,18,23,25,13.70
2009,07,18,23,26,13.70
2009,07,18,23,27,13.70
2009,07,18,23,28,13.70
2009,07,18,23,29,13.70
2009,07,18,23,30,13.70
2009,07,18,23,31,13.70
2009,07,18,23,32,13.70
2009,07,18,23,33,13.70
2009,07,18,23,34,13.60
2009,07,18,23,35,13.60
2009,07,18,23,36,13.60
2009,07,18,23,37,13.60
2009,07,18,23,38,13.60
2009,07,18,23,39,13.60
2009,07,18,23,40,13.50
2009,07,18,23,41,13.50
2009,07,18,23,42,13.50
2009,07,18,23,43,13.50
2009,07,18,23,44,13.50
2009,07,18,23,45,13.50
2009,07,18,23,46,13.50
2009,07,18,23,47,13.60
2009,07,18,23,48,13.60
2009,07,18,23,49,13.60
2009,07,18,23,50,13.60
2009,07,18,23,51,13.60
2009,07,18,23,52,13.60
2009,07,18,23,53,13.60
2009,07,18,23,54,13.50
2009,07,18,23,55,13.50
2009,07,18,23,56,13.50
2009,07,18,23,57,13.50
2009,07,18,23,58,13.50
2009,07,18,23,59,13.50
